Regional Weather Roundup
Issued by NWS

Home | Current Version | Previous Version | Graphics & Text | Print | Product List | Glossary On
Versions: 1 2 3 4 5 6 7 8 9 10 11 12 13 14 15 16 17 18 19 20 21 22 23 24 25 26 27 28 29 30 31 32 33 34 35 36 37 38 39 40 41 42 43 44 45 46 47 48 49 50
000
ASUS43 KBIS 290120
RWRND

NORTH DAKOTA REGIONAL WEATHER ROUNDUP
NATIONAL WEATHER SERVICE BISMARCK ND
700 PM CST SUN DEC 28 2014

NOTE: "FAIR" INDICATES FEW OR NO CLOUDS BELOW 12,000 FEET WITH NO
SIGNIFICANT WEATHER AND/OR OBSTRUCTIONS TO VISIBILITY.


NDZ001>003-009>011-017-290200-
NORTHWEST NORTH DAKOTA

CITY           SKY/WX    TMP DP  RH WIND       PRES   REMARKS
WILLISTON      CLOUDY     5  -2  72 N14       30.34R WCI -12
MINOT          PTCLDY    -4  -9  79 NW9       30.37R WCI -20
MINOT AFB      PTCLDY    -6 -10  84 N7        30.38R WCI -21
$$

NDZ018>021-031>035-040>046-290200-
SOUTHWEST NORTH DAKOTA

CITY           SKY/WX    TMP DP  RH WIND       PRES   REMARKS
BISMARCK       CLOUDY     4  -1  80 NE12      30.33R WCI -12
DICKINSON      LGT SNOW  10   5  80 NE15      30.19R WCI  -7
GARRISON         N/A      2  -2  83 NE9       30.32R WCI -13
HETTINGER ARPT LGT SNOW  13   9  84 NE16      30.16R FOG     WCI  -3
$$

NDZ004>008-012>016-024-026-027-054-290200-
NORTHEAST NORTH DAKOTA

CITY           SKY/WX    TMP DP  RH WIND       PRES   REMARKS
GRAND FORKS    CLEAR     -8 -12  83 N5        30.44R WCI -19
GRND FRKS AFB  CLEAR     -6 -10  83 N5        30.44R WCI -18
DEVILS LAKE    PTCLDY    -8 -15  71 N5        30.37R WCI -19
$$

NDZ022-023-025-028>030-036>039-047>053-290200-
SOUTHEAST NORTH DAKOTA

CITY           SKY/WX    TMP DP  RH WIND       PRES   REMARKS
FARGO          CLEAR     -1  -8  72 N13       30.40R WCI -19
JAMESTOWN      CLOUDY     0  -6  76 N10       30.34R WCI -16
$$




USA.gov is the U.S. government's official web portal to all federal, state and local government web resources and services.